StationID,Date,MaxTemp,MinTemp,Precipitation,Snowfall,SnowDepth
"EGE00147728","1909-01-07",,,30.00,,
"EGE00147728","1909-01-08",57.20,,0.00,,
"EGE00147728","1909-01-09",64.40,39.20,0.00,,
"EGE00147728","1909-01-10",51.80,37.40,0.00,,
"EGE00147728","1909-01-11",69.80,42.80,0.00,,
"EGE00147728","1909-01-12",64.40,42.80,0.00,,
"EGE00147728","1909-01-13",62.60,50.00,10.00,,
"EGE00147728","1909-01-14",59.00,46.40,0.00,,
"EGE00147728","1909-01-15",59.00,46.40,0.00,,
"EGE00147728","1909-01-16",66.20,44.60,0.00,,
"EGE00147728","1909-01-17",62.60,42.80,0.00,,
"EGE00147728","1909-01-18",68.00,44.60,0.00,,
"EGE00147728","1909-01-19",64.40,46.40,0.00,,
"EGE00147728","1909-01-20",60.80,48.20,0.00,,
"EGE00147728","1909-01-21",62.60,46.40,0.00,,
"EGE00147728","1909-01-22",64.40,42.80,0.00,,
"EGE00147728","1909-01-23",57.20,41.00,0.00,,
"EGE00147728","1909-01-24",68.00,39.20,0.00,,
"EGE00147728","1909-01-25",69.80,39.20,0.00,,
"EGE00147728","1909-01-26",75.20,57.20,0.00,,
"EGE00147728","1909-01-27",68.00,50.00,0.00,,
"EGE00147728","1909-01-28",66.20,46.40,0.00,,
"EGE00147728","1909-01-29",64.40,42.80,0.00,,
"EGE00147728","1909-01-30",69.80,42.80,0.00,,
"EGE00147728","1909-01-31",62.60,44.60,0.00,,
"EGE00147728","1909-02-01",62.60,41.00,0.00,,
"EGE00147728","1909-02-02",68.00,41.00,0.00,,
"EGE00147728","1909-02-03",,44.60,0.00,,
"EGE00147728","1909-02-04",,42.80,0.00,,
"EGE00147728","1909-02-05",62.60,,0.00,,
"EGE00147728","1909-02-06",68.00,46.40,0.00,,
"EGE00147728","1909-02-07",71.60,42.80,0.00,,
"EGE00147728","1909-02-08",71.60,48.20,0.00,,
"EGE00147728","1909-02-09",75.20,48.20,0.00,,
"EGE00147728","1909-02-10",71.60,46.40,0.00,,
"EGE00147728","1909-02-11",71.60,42.80,0.00,,
"EGE00147728","1909-02-12",71.60,48.20,0.00,,
"EGE00147728","1909-02-13",73.40,48.20,0.00,,
"EGE00147728","1909-02-14",73.40,46.40,0.00,,
"EGE00147728","1909-02-15",68.00,50.00,0.00,,
"EGE00147728","1909-02-16",66.20,44.60,0.00,,
"EGE00147728","1909-02-17",73.40,42.80,0.00,,
"EGE00147728","1909-02-18",69.80,46.40,0.00,,
"EGE00147728","1909-02-19",66.20,48.20,0.00,,
"EGE00147728","1909-02-20",68.00,46.40,0.00,,
"EGE00147728","1909-02-21",71.60,44.60,0.00,,
"EGE00147728","1909-02-22",80.60,41.00,0.00,,
"EGE00147728","1909-02-23",66.20,42.80,0.00,,
"EGE00147728","1909-02-24",64.40,44.60,0.00,,
"EGE00147728","1909-02-25",,41.00,0.00,,
"EGE00147728","1909-02-26",68.00,,0.00,,
"EGE00147728","1909-02-27",73.40,44.60,0.00,,
"EGE00147728","1909-02-28",69.80,50.00,0.00,,
"EGE00147728","1909-03-01",68.00,46.40,0.00,,
"EGE00147728","1909-03-02",71.60,44.60,0.00,,
"EGE00147728","1909-03-03",78.80,46.40,0.00,,
"EGE00147728","1909-03-04",75.20,50.00,0.00,,
"EGE00147728","1909-03-05",71.60,46.40,0.00,,
"EGE00147728","1909-03-06",82.40,51.80,0.00,,
"EGE00147728","1909-03-07",71.60,51.80,0.00,,
"EGE00147728","1909-03-08",69.80,46.40,0.00,,
"EGE00147728","1909-03-09",75.20,46.40,0.00,,
"EGE00147728","1909-03-10",82.40,50.00,0.00,,
"EGE00147728","1909-03-11",77.00,50.00,0.00,,
"EGE00147728","1909-03-12",86.00,46.40,0.00,,
"EGE00147728","1909-03-13",86.00,53.60,0.00,,
"EGE00147728","1909-03-14",84.20,55.40,0.00,,
"EGE00147728","1909-03-15",91.40,59.00,0.00,,
"EGE00147728","1909-03-16",84.20,60.80,0.00,,
"EGE00147728","1909-03-17",84.20,51.80,0.00,,
"EGE00147728","1909-03-18",89.60,50.00,0.00,,
"EGE00147728","1909-03-19",77.00,62.60,0.00,,
"EGE00147728","1909-03-20",71.60,48.20,0.00,,
"EGE00147728","1909-03-21",75.20,50.00,0.00,,
"EGE00147728","1909-03-22",82.40,50.00,0.00,,
"EGE00147728","1909-03-23",71.60,55.40,0.00,,
"EGE00147728","1909-03-24",77.00,55.40,0.00,,
"EGE00147728","1909-03-25",80.60,51.80,0.00,,
"EGE00147728","1909-03-26",78.80,57.20,0.00,,
"EGE00147728","1909-03-27",77.00,50.00,0.00,,
"EGE00147728","1909-03-28",,57.20,0.00,,
"EGE00147728","1909-03-29",73.40,,0.00,,
"EGE00147728","1909-03-30",71.60,,0.00,,
"EGE00147728","1909-03-31",73.40,51.80,0.00,,
"EGE00147728","1909-04-01",77.00,50.00,0.00,,
"EGE00147728","1909-04-02",73.40,50.00,0.00,,
"EGE00147728","1909-04-03",75.20,50.00,0.00,,
"EGE00147728","1909-04-04",82.40,51.80,0.00,,
"EGE00147728","1909-04-05",91.40,53.60,0.00,,
"EGE00147728","1909-04-06",75.20,55.40,0.00,,
"EGE00147728","1909-04-07",73.40,50.00,0.00,,
"EGE00147728","1909-04-08",69.80,48.20,0.00,,
"EGE00147728","1909-04-09",68.00,50.00,0.00,,
"EGE00147728","1909-04-10",71.60,48.20,0.00,,
"EGE00147728","1909-04-11",89.60,53.60,0.00,,
"EGE00147728","1909-04-12",71.60,51.80,0.00,,
"EGE00147728","1909-04-13",77.00,50.00,0.00,,
"EGE00147728","1909-04-14",82.40,51.80,0.00,,
"EGE00147728","1909-04-15",71.60,57.20,30.00,,
"EGE00147728","1909-04-16",73.40,51.80,0.00,,
"EGE00147728","1909-04-17",77.00,51.80,0.00,,
"EGE00147728","1909-04-18",82.40,55.40,0.00,,
"EGE00147728","1909-04-19",82.40,60.80,200.00,,
"EGE00147728","1909-04-20",69.80,59.00,60.00,,
"EGE00147728","1909-04-21",75.20,59.00,0.00,,
"EGE00147728","1909-04-22",80.60,55.40,0.00,,
"EGE00147728","1909-04-23",82.40,55.40,0.00,,
"EGE00147728","1909-04-24",80.60,57.20,0.00,,
"EGE00147728","1909-04-25",78.80,57.20,0.00,,
"EGE00147728","1909-04-26",78.80,55.40,0.00,,
"EGE00147728","1909-04-27",82.40,55.40,0.00,,
"EGE00147728","1909-04-28",86.00,57.20,0.00,,
"EGE00147728","1909-04-29",91.40,53.60,0.00,,
"EGE00147728","1909-04-30",98.60,55.40,0.00,,
"EGE00147728","1909-05-01",98.60,60.80,0.00,,
"EGE00147728","1909-05-02",96.80,62.60,0.00,,
"EGE00147728","1909-05-03",96.80,66.20,0.00,,
"EGE00147728","1909-05-04",93.20,64.40,0.00,,
"EGE00147728","1909-05-05",89.60,62.60,0.00,,
"EGE00147728","1909-05-06",89.60,60.80,0.00,,
"EGE00147728","1909-05-07",95.00,60.80,0.00,,
"EGE00147728","1909-05-08",100.40,66.20,0.00,,
"EGE00147728","1909-05-09",86.00,64.40,0.00,,
"EGE00147728","1909-05-10",86.00,57.20,0.00,,
"EGE00147728","1909-05-11",87.80,57.20,0.00,,
"EGE00147728","1909-05-12",91.40,60.80,0.00,,
"EGE00147728","1909-05-13",96.80,60.80,0.00,,
"EGE00147728","1909-05-14",100.40,71.60,0.00,,
"EGE00147728","1909-05-15",104.00,68.00,0.00,,
"EGE00147728","1909-05-16",,66.20,0.00,,
"EGE00147728","1909-05-17",,68.00,0.00,,
"EGE00147728","1909-05-18",100.40,,0.00,,
"EGE00147728","1909-05-19",98.60,64.40,0.00,,
"EGE00147728","1909-05-20",93.20,64.40,0.00,,
"EGE00147728","1909-05-21",93.20,64.40,0.00,,
"EGE00147728","1909-05-22",89.60,64.40,0.00,,
"EGE00147728","1909-05-23",89.60,68.00,0.00,,
"EGE00147728","1909-05-24",87.80,64.40,0.00,,
"EGE00147728","1909-05-25",87.80,60.80,0.00,,
"EGE00147728","1909-05-26",89.60,62.60,0.00,,
"EGE00147728","1909-05-27",93.20,60.80,0.00,,
"EGE00147728","1909-05-28",98.60,69.80,0.00,,
"EGE00147728","1909-05-29",104.00,69.80,0.00,,
"EGE00147728","1909-05-30",109.40,69.80,0.00,,
"EGE00147728","1909-05-31",96.80,75.20,0.00,,
"EGE00147728","1909-06-01",91.40,71.60,0.00,,
"EGE00147728","1909-06-02",93.20,64.40,0.00,,
"EGE00147728","1909-06-03",86.00,68.00,0.00,,
"EGE00147728","1909-06-04",87.80,64.40,0.00,,
"EGE00147728","1909-06-05",89.60,62.60,0.00,,
"EGE00147728","1909-06-06",93.20,62.60,0.00,,
"EGE00147728","1909-06-07",91.40,62.60,0.00,,
"EGE00147728","1909-06-08",95.00,64.40,0.00,,
"EGE00147728","1909-06-09",98.60,75.20,0.00,,
"EGE00147728","1909-06-10",104.00,82.40,0.00,,
"EGE00147728","1909-06-11",93.20,68.00,0.00,,
"EGE00147728","1909-06-12",96.80,68.00,0.00,,
"EGE00147728","1909-06-13",100.40,66.20,0.00,,
"EGE00147728","1909-06-14",104.00,68.00,0.00,,
"EGE00147728","1909-06-15",93.20,71.60,0.00,,
"EGE00147728","1909-06-16",89.60,64.40,0.00,,
"EGE00147728","1909-06-17",93.20,64.40,0.00,,
"EGE00147728","1909-06-18",100.40,64.40,0.00,,
"EGE00147728","1909-06-19",100.40,66.20,0.00,,
"EGE00147728","1909-06-20",95.00,66.20,0.00,,
"EGE00147728","1909-06-21",96.80,75.20,0.00,,
"EGE00147728","1909-06-22",98.60,68.00,0.00,,
"EGE00147728","1909-06-23",91.40,66.20,0.00,,
"EGE00147728","1909-06-24",95.00,69.80,0.00,,
"EGE00147728","1909-06-25",96.80,68.00,0.00,,
"EGE00147728","1909-06-26",96.80,68.00,0.00,,
"EGE00147728","1909-06-27",96.80,68.00,0.00,,
"EGE00147728","1909-06-28",96.80,68.00,0.00,,
"EGE00147728","1909-06-29",95.00,68.00,0.00,,
"EGE00147728","1909-06-30",95.00,68.00,0.00,,
"EGE00147728","1909-07-01",95.00,68.00,0.00,,
"EGE00147728","1909-07-02",95.00,68.00,0.00,,
"EGE00147728","1909-07-03",96.80,68.00,0.00,,
"EGE00147728","1909-07-04",96.80,69.80,0.00,,
"EGE00147728","1909-07-05",104.00,69.80,0.00,,
"EGE00147728","1909-07-06",98.60,75.20,0.00,,
"EGE00147728","1909-07-07",93.20,68.00,0.00,,
"EGE00147728","1909-07-08",93.20,68.00,0.00,,
"EGE00147728","1909-07-09",93.20,68.00,0.00,,
"EGE00147728","1909-07-10",98.60,66.20,0.00,,
"EGE00147728","1909-07-11",95.00,71.60,0.00,,
"EGE00147728","1909-07-12",95.00,68.00,0.00,,
"EGE00147728","1909-07-13",96.80,69.80,0.00,,
"EGE00147728","1909-07-14",98.60,69.80,0.00,,
"EGE00147728","1909-07-15",93.20,68.00,0.00,,
"EGE00147728","1909-07-16",95.00,68.00,0.00,,
"EGE00147728","1909-07-17",95.00,73.40,0.00,,
"EGE00147728","1909-07-18",96.80,71.60,0.00,,
"EGE00147728","1909-07-19",95.00,69.80,0.00,,
"EGE00147728","1909-07-20",91.40,68.00,0.00,,
"EGE00147728","1909-07-21",93.20,68.00,0.00,,
"EGE00147728","1909-07-22",96.80,69.80,0.00,,
"EGE00147728","1909-07-23",96.80,69.80,0.00,,
"EGE00147728","1909-07-24",95.00,71.60,0.00,,
"EGE00147728","1909-07-25",96.80,69.80,0.00,,
"EGE00147728","1909-07-26",96.80,71.60,0.00,,
"EGE00147728","1909-07-27",96.80,69.80,0.00,,
"EGE00147728","1909-07-28",98.60,64.40,0.00,,
"EGE00147728","1909-07-29",102.20,71.60,0.00,,
"EGE00147728","1909-07-30",104.00,77.00,0.00,,
"EGE00147728","1909-07-31",102.20,75.20,0.00,,
"EGE00147728","1909-08-01",100.40,77.00,0.00,,
"EGE00147728","1909-08-02",102.20,73.40,0.00,,
"EGE00147728","1909-08-03",100.40,71.60,0.00,,
"EGE00147728","1909-08-04",96.80,73.40,0.00,,
"EGE00147728","1909-08-05",95.00,71.60,0.00,,
"EGE00147728","1909-08-06",93.20,69.80,0.00,,
"EGE00147728","1909-08-07",96.80,71.60,0.00,,
"EGE00147728","1909-08-08",93.20,71.60,0.00,,
"EGE00147728","1909-08-09",95.00,73.40,0.00,,
"EGE00147728","1909-08-10",96.80,71.60,0.00,,
"EGE00147728","1909-08-11",95.00,73.40,0.00,,
"EGE00147728","1909-08-12",96.80,71.60,0.00,,
"EGE00147728","1909-08-13",96.80,73.40,0.00,,
"EGE00147728","1909-08-14",96.80,75.20,0.00,,
"EGE00147728","1909-08-15",93.20,71.60,0.00,,
"EGE00147728","1909-08-16",91.40,71.60,0.00,,
"EGE00147728","1909-08-17",93.20,69.80,0.00,,
"EGE00147728","1909-08-18",95.00,73.40,0.00,,
"EGE00147728","1909-08-19",95.00,71.60,0.00,,
"EGE00147728","1909-08-20",93.20,68.00,0.00,,
"EGE00147728","1909-08-21",93.20,71.60,0.00,,
"EGE00147728","1909-08-22",95.00,71.60,0.00,,
"EGE00147728","1909-08-23",91.40,68.00,0.00,,
"EGE00147728","1909-08-24",93.20,68.00,0.00,,
"EGE00147728","1909-08-25",93.20,68.00,0.00,,
"EGE00147728","1909-08-26",95.00,69.80,0.00,,
"EGE00147728","1909-08-27",98.60,69.80,0.00,,
"EGE00147728","1909-08-28",89.60,71.60,0.00,,
"EGE00147728","1909-08-29",89.60,69.80,0.00,,
"EGE00147728","1909-08-30",91.40,69.80,0.00,,
"EGE00147728","1909-08-31",93.20,69.80,0.00,,
"EGE00147728","1909-09-01",96.80,69.80,0.00,,
"EGE00147728","1909-09-02",93.20,69.80,0.00,,
"EGE00147728","1909-09-03",93.20,69.80,0.00,,
"EGE00147728","1909-09-04",91.40,68.00,0.00,,
"EGE00147728","1909-09-05",93.20,71.60,0.00,,
"EGE00147728","1909-09-06",95.00,73.40,0.00,,
"EGE00147728","1909-09-07",100.40,69.80,0.00,,
"EGE00147728","1909-09-08",100.40,69.80,0.00,,
"EGE00147728","1909-09-09",95.00,69.80,0.00,,
"EGE00147728","1909-09-10",91.40,71.60,0.00,,
"EGE00147728","1909-09-11",91.40,68.00,0.00,,
"EGE00147728","1909-09-12",89.60,71.60,0.00,,
"EGE00147728","1909-09-13",89.60,69.80,0.00,,
"EGE00147728","1909-09-14",89.60,68.00,0.00,,
"EGE00147728","1909-09-15",89.60,71.60,0.00,,
"EGE00147728","1909-09-16",93.20,68.00,0.00,,
"EGE00147728","1909-09-17",91.40,68.00,0.00,,
"EGE00147728","1909-09-18",91.40,71.60,0.00,,
"EGE00147728","1909-09-19",87.80,68.00,0.00,,
"EGE00147728","1909-09-20",95.00,68.00,0.00,,
"EGE00147728","1909-09-21",87.80,68.00,0.00,,
"EGE00147728","1909-09-22",87.80,68.00,0.00,,
"EGE00147728","1909-09-23",87.80,68.00,0.00,,
"EGE00147728","1909-09-24",86.00,66.20,0.00,,
"EGE00147728","1909-09-25",87.80,64.40,0.00,,
"EGE00147728","1909-09-26",87.80,66.20,0.00,,
"EGE00147728","1909-09-27",86.00,64.40,0.00,,
"EGE00147728","1909-09-28",86.00,66.20,0.00,,
"EGE00147728","1909-09-29",89.60,64.40,0.00,,
"EGE00147728","1909-09-30",95.00,64.40,0.00,,
"EGE00147728","1909-10-01",93.20,66.20,0.00,,
"EGE00147728","1909-10-02",89.60,68.00,0.00,,
"EGE00147728","1909-10-03",91.40,64.40,0.00,,
"EGE00147728","1909-10-04",89.60,68.00,0.00,,
"EGE00147728","1909-10-05",89.60,66.20,0.00,,
"EGE00147728","1909-10-06",87.80,66.20,0.00,,
"EGE00147728","1909-10-07",87.80,66.20,0.00,,
"EGE00147728","1909-10-08",86.00,64.40,0.00,,
"EGE00147728","1909-10-09",84.20,64.40,0.00,,
"EGE00147728","1909-10-10",84.20,62.60,0.00,,
"EGE00147728","1909-10-11",86.00,60.80,0.00,,
"EGE00147728","1909-10-12",86.00,60.80,0.00,,
"EGE00147728","1909-10-13",84.20,60.80,0.00,,
"EGE00147728","1909-10-14",86.00,62.60,0.00,,
"EGE00147728","1909-10-15",89.60,62.60,0.00,,
"EGE00147728","1909-10-16",84.20,64.40,0.00,,
"EGE00147728","1909-10-17",84.20,64.40,0.00,,
"EGE00147728","1909-10-18",82.40,60.80,0.00,,
"EGE00147728","1909-10-19",82.40,60.80,0.00,,
"EGE00147728","1909-10-20",82.40,60.80,0.00,,
"EGE00147728","1909-10-21",87.80,60.80,0.00,,
"EGE00147728","1909-10-22",82.40,64.40,0.00,,
"EGE00147728","1909-10-23",80.60,59.00,0.00,,
"EGE00147728","1909-10-24",80.60,59.00,0.00,,
"EGE00147728","1909-10-25",89.60,62.60,0.00,,
"EGE00147728","1909-10-26",86.00,68.00,0.00,,
"EGE00147728","1909-10-27",82.40,64.40,0.00,,
"EGE00147728","1909-10-28",78.80,60.80,0.00,,
"EGE00147728","1909-10-29",78.80,57.20,0.00,,
"EGE00147728","1909-10-30",82.40,59.00,0.00,,
"EGE00147728","1909-10-31",84.20,57.20,0.00,,
"EGE00147728","1909-11-01",84.20,59.00,0.00,,
"EGE00147728","1909-11-02",84.20,60.80,0.00,,
"EGE00147728","1909-11-03",82.40,62.60,0.00,,
"EGE00147728","1909-11-04",80.60,62.60,0.00,,
"EGE00147728","1909-11-05",82.40,62.60,0.00,,
"EGE00147728","1909-11-06",89.60,69.80,0.00,,
"EGE00147728","1909-11-07",82.40,59.00,0.00,,
"EGE00147728","1909-11-08",80.60,59.00,0.00,,
"EGE00147728","1909-11-09",77.00,59.00,0.00,,
"EGE00147728","1909-11-10",75.20,60.80,0.00,,
"EGE00147728","1909-11-11",77.00,57.20,0.00,,
"EGE00147728","1909-11-12",75.20,55.40,0.00,,
"EGE00147728","1909-11-13",75.20,55.40,0.00,,
"EGE00147728","1909-11-14",75.20,55.40,0.00,,
"EGE00147728","1909-11-15",77.00,53.60,0.00,,
"EGE00147728","1909-11-16",80.60,51.80,0.00,,
"EGE00147728","1909-11-17",78.80,57.20,0.00,,
"EGE00147728","1909-11-18",82.40,55.40,0.00,,
"EGE00147728","1909-11-19",89.60,57.20,0.00,,
"EGE00147728","1909-11-20",84.20,60.80,0.00,,
"EGE00147728","1909-11-21",77.00,59.00,0.00,,
"EGE00147728","1909-11-22",78.80,55.40,0.00,,
"EGE00147728","1909-11-23",82.40,53.60,0.00,,
"EGE00147728","1909-11-24",82.40,53.60,0.00,,
"EGE00147728","1909-11-25",82.40,55.40,0.00,,
"EGE00147728","1909-11-26",73.40,59.00,0.00,,
"EGE00147728","1909-11-27",71.60,51.80,0.00,,
"EGE00147728","1909-11-28",71.60,48.20,0.00,,
"EGE00147728","1909-11-29",77.00,53.60,0.00,,
"EGE00147728","1909-11-30",78.80,53.60,0.00,,
"EGE00147728","1909-12-01",82.40,57.20,0.00,,
"EGE00147728","1909-12-02",73.40,53.60,0.00,,
"EGE00147728","1909-12-03",77.00,57.20,0.00,,
"EGE00147728","1909-12-04",75.20,59.00,0.00,,
"EGE00147728","1909-12-05",73.40,53.60,0.00,,
"EGE00147728","1909-12-06",68.00,53.60,0.00,,
"EGE00147728","1909-12-07",71.60,53.60,0.00,,
"EGE00147728","1909-12-08",73.40,51.80,0.00,,
"EGE00147728","1909-12-09",69.80,51.80,0.00,,
"EGE00147728","1909-12-10",75.20,48.20,0.00,,
"EGE00147728","1909-12-11",73.40,51.80,0.00,,
"EGE00147728","1909-12-12",73.40,50.00,0.00,,
"EGE00147728","1909-12-13",71.60,53.60,0.00,,
"EGE00147728","1909-12-14",71.60,53.60,0.00,,
"EGE00147728","1909-12-15",75.20,48.20,0.00,,
"EGE00147728","1909-12-16",71.60,50.00,0.00,,
"EGE00147728","1909-12-17",71.60,51.80,0.00,,
"EGE00147728","1909-12-18",69.80,50.00,0.00,,
"EGE00147728","1909-12-19",69.80,51.80,0.00,,
"EGE00147728","1909-12-20",69.80,50.00,0.00,,
"EGE00147728","1909-12-21",68.00,50.00,0.00,,
"EGE00147728","1909-12-22",69.80,48.20,0.00,,
"EGE00147728","1909-12-23",69.80,48.20,0.00,,
"EGE00147728","1909-12-24",69.80,48.20,0.00,,
"EGE00147728","1909-12-25",69.80,50.00,0.00,,
"EGE00147728","1909-12-26",71.60,50.00,0.00,,
"EGE00147728","1909-12-27",73.40,46.40,0.00,,
"EGE00147728","1909-12-28",71.60,48.20,0.00,,
"EGE00147728","1909-12-29",68.00,50.00,0.00,,
"EGE00147728","1909-12-30",68.00,46.40,0.00,,
"EGE00147728","1909-12-31",68.00,51.80,0.00,,
"EGE00147728","1910-01-01",69.80,46.40,0.00,,
"EGE00147728","1910-01-02",69.80,48.20,0.00,,
"EGE00147728","1910-01-03",71.60,42.80,0.00,,
"EGE00147728","1910-01-04",64.40,46.40,20.00,,
"EGE00147728","1910-01-05",66.20,46.40,0.00,,
"EGE00147728","1910-01-06",64.40,48.20,0.00,,
"EGE00147728","1910-01-07",66.20,46.40,0.00,,
"EGE00147728","1910-01-08",68.00,44.60,0.00,,
"EGE00147728","1910-01-09",66.20,46.40,0.00,,
"EGE00147728","1910-01-10",60.80,46.40,0.00,,
"EGE00147728","1910-01-11",60.80,39.20,0.00,,
"EGE00147728","1910-01-12",59.00,35.60,0.00,,
"EGE00147728","1910-01-13",62.60,30.20,0.00,,
"EGE00147728","1910-01-14",71.60,33.80,0.00,,
"EGE00147728","1910-01-15",68.00,42.80,0.00,,
"EGE00147728","1910-01-16",68.00,42.80,0.00,,
"EGE00147728","1910-01-17",66.20,42.80,10.00,,
"EGE00147728","1910-01-18",62.60,44.60,0.00,,
"EGE00147728","1910-01-19",64.40,48.20,0.00,,
"EGE00147728","1910-01-20",62.60,48.20,0.00,,
"EGE00147728","1910-01-21",69.80,48.20,0.00,,
"EGE00147728","1910-01-22",69.80,46.40,0.00,,
"EGE00147728","1910-01-23",73.40,41.00,0.00,,
"EGE00147728","1910-01-24",71.60,46.40,0.00,,
"EGE00147728","1910-01-25",73.40,44.60,0.00,,
"EGE00147728","1910-01-26",66.20,44.60,0.00,,
"EGE00147728","1910-01-27",69.80,41.00,0.00,,
"EGE00147728","1910-01-28",68.00,41.00,0.00,,
"EGE00147728","1910-01-29",71.60,41.00,0.00,,
"EGE00147728","1910-01-30",69.80,42.80,0.00,,
"EGE00147728","1910-01-31",69.80,42.80,0.00,,
"EGE00147728","1910-02-01",71.60,41.00,0.00,,
"EGE00147728","1910-02-02",75.20,39.20,0.00,,
"EGE00147728","1910-02-03",78.80,42.80,0.00,,
"EGE00147728","1910-02-04",80.60,44.60,0.00,,
"EGE00147728","1910-02-05",78.80,46.40,0.00,,
"EGE00147728","1910-02-06",71.60,51.80,0.00,,
"EGE00147728","1910-02-07",68.00,44.60,0.00,,
"EGE00147728","1910-02-08",69.80,46.40,0.00,,
"EGE00147728","1910-02-09",68.00,46.40,0.00,,
"EGE00147728","1910-02-10",71.60,44.60,0.00,,
"EGE00147728","1910-02-11",73.40,42.80,0.00,,
"EGE00147728","1910-02-12",77.00,42.80,0.00,,
"EGE00147728","1910-02-13",68.00,48.20,0.00,,
"EGE00147728","1910-02-14",68.00,51.80,0.00,,
"EGE00147728","1910-02-15",71.60,48.20,0.00,,
"EGE00147728","1910-02-16",66.20,42.80,0.00,,
"EGE00147728","1910-02-17",66.20,46.40,0.00,,
"EGE00147728","1910-02-18",69.80,50.00,0.00,,
"EGE00147728","1910-02-19",73.40,42.80,0.00,,
"EGE00147728","1910-02-20",69.80,46.40,0.00,,
"EGE00147728","1910-02-21",68.00,48.20,0.00,,
"EGE00147728","1910-02-22",71.60,42.80,0.00,,
"EGE00147728","1910-02-23",73.40,42.80,0.00,,
"EGE00147728","1910-02-24",73.40,46.40,0.00,,
"EGE00147728","1910-02-25",71.60,48.20,0.00,,
"EGE00147728","1910-02-26",71.60,46.40,0.00,,
"EGE00147728","1910-02-27",69.80,44.60,0.00,,
"EGE00147728","1910-02-28",69.80,42.80,0.00,,
"EGE00147728","1910-03-01",71.60,42.80,0.00,,
"EGE00147728","1910-03-02",73.40,44.60,0.00,,
"EGE00147728","1910-03-03",69.80,46.40,0.00,,
"EGE00147728","1910-03-04",69.80,48.20,0.00,,
"EGE00147728","1910-03-05",71.60,46.40,0.00,,
"EGE00147728","1910-03-06",75.20,48.20,0.00,,
"EGE00147728","1910-03-07",77.00,48.20,0.00,,
"EGE00147728","1910-03-08",78.80,53.60,0.00,,
"EGE00147728","1910-03-09",64.40,46.40,0.00,,
"EGE00147728","1910-03-10",62.60,42.80,0.00,,
"EGE00147728","1910-03-11",62.60,39.20,20.00,,
"EGE00147728","1910-03-12",60.80,42.80,0.00,,
"EGE00147728","1910-03-13",64.40,44.60,0.00,,
"EGE00147728","1910-03-14",64.40,39.20,0.00,,
"EGE00147728","1910-03-15",66.20,42.80,0.00,,
"EGE00147728","1910-03-16",69.80,42.80,0.00,,
"EGE00147728","1910-03-17",73.40,41.00,0.00,,
"EGE00147728","1910-03-18",75.20,42.80,0.00,,
"EGE00147728","1910-03-19",78.80,44.60,0.00,,
"EGE00147728","1910-03-20",75.20,50.00,0.00,,
"EGE00147728","1910-03-21",77.00,55.40,0.00,,
"EGE00147728","1910-03-22",77.00,60.80,80.00,,
"EGE00147728","1910-03-23",69.80,55.40,0.00,,
"EGE00147728","1910-03-24",69.80,51.80,0.00,,
"EGE00147728","1910-03-25",71.60,53.60,0.00,,
"EGE00147728","1910-03-26",69.80,53.60,0.00,,
"EGE00147728","1910-03-27",69.80,50.00,0.00,,
"EGE00147728","1910-03-28",69.80,48.20,0.00,,
"EGE00147728","1910-03-29",71.60,46.40,0.00,,
"EGE00147728","1910-03-30",71.60,46.40,0.00,,
"EGE00147728","1910-03-31",82.40,48.20,0.00,,
"EGE00147728","1910-04-01",91.40,50.00,0.00,,
"EGE00147728","1910-04-02",82.40,53.60,0.00,,
"EGE00147728","1910-04-03",89.60,53.60,0.00,,
"EGE00147728","1910-04-04",96.80,55.40,0.00,,
"EGE00147728","1910-04-05",102.20,59.00,0.00,,
"EGE00147728","1910-04-06",102.20,60.80,0.00,,
"EGE00147728","1910-04-07",96.80,64.40,0.00,,
"EGE00147728","1910-04-08",86.00,68.00,0.00,,
"EGE00147728","1910-04-09",93.20,60.80,0.00,,
"EGE00147728","1910-04-10",71.60,62.60,10.00,,
"EGE00147728","1910-04-11",80.60,53.60,0.00,,
"EGE00147728","1910-04-12",82.40,57.20,0.00,,
"EGE00147728","1910-04-13",73.40,51.80,0.00,,
"EGE00147728","1910-04-14",75.20,51.80,0.00,,
"EGE00147728","1910-04-15",77.00,50.00,0.00,,
"EGE00147728","1910-04-16",82.40,53.60,0.00,,
"EGE00147728","1910-04-17",95.00,55.40,0.00,,
"EGE00147728","1910-04-18",78.80,62.60,0.00,,
"EGE00147728","1910-04-19",80.60,55.40,0.00,,
"EGE00147728","1910-04-20",82.40,57.20,0.00,,
"EGE00147728","1910-04-21",80.60,57.20,0.00,,
"EGE00147728","1910-04-22",75.20,60.80,0.00,,
"EGE00147728","1910-04-23",78.80,53.60,0.00,,
"EGE00147728","1910-04-24",80.60,53.60,0.00,,
"EGE00147728","1910-04-25",82.40,53.60,0.00,,
"EGE00147728","1910-04-26",82.40,59.00,0.00,,
"EGE00147728","1910-04-27",82.40,53.60,0.00,,
"EGE00147728","1910-04-28",84.20,55.40,0.00,,
"EGE00147728","1910-04-29",91.40,55.40,0.00,,
"EGE00147728","1910-04-30",95.00,59.00,0.00,,
"EGE00147728","1910-05-01",96.80,60.80,0.00,,
"EGE00147728","1910-05-02",104.00,62.60,0.00,,
"EGE00147728","1910-05-03",93.20,68.00,0.00,,
"EGE00147728","1910-05-04",82.40,59.00,0.00,,
"EGE00147728","1910-05-05",87.80,60.80,0.00,,
"EGE00147728","1910-05-06",89.60,62.60,0.00,,
"EGE00147728","1910-05-07",87.80,66.20,0.00,,
"EGE00147728","1910-05-08",77.00,59.00,0.00,,
"EGE00147728","1910-05-09",80.60,55.40,0.00,,
"EGE00147728","1910-05-10",86.00,55.40,0.00,,
"EGE00147728","1910-05-11",89.60,59.00,0.00,,
"EGE00147728","1910-05-12",93.20,59.00,0.00,,
"EGE00147728","1910-05-13",96.80,66.20,0.00,,
"EGE00147728","1910-05-14",91.40,73.40,0.00,,
"EGE00147728","1910-05-15",84.20,62.60,0.00,,
"EGE00147728","1910-05-16",80.60,59.00,0.00,,
"EGE00147728","1910-05-17",86.00,57.20,0.00,,
"EGE00147728","1910-05-18",95.00,59.00,0.00,,
"EGE00147728","1910-05-19",98.60,68.00,0.00,,
"EGE00147728","1910-05-20",104.00,68.00,0.00,,
"EGE00147728","1910-05-21",100.40,62.60,0.00,,
"EGE00147728","1910-05-22",87.80,69.80,0.00,,
"EGE00147728","1910-05-23",89.60,62.60,0.00,,
"EGE00147728","1910-05-24",91.40,64.40,0.00,,
"EGE00147728","1910-05-25",96.80,66.20,0.00,,
"EGE00147728","1910-05-26",87.80,62.60,0.00,,
"EGE00147728","1910-05-27",82.40,62.60,0.00,,
"EGE00147728","1910-05-28",86.00,60.80,0.00,,
"EGE00147728","1910-05-29",89.60,59.00,0.00,,
"EGE00147728","1910-05-30",95.00,60.80,0.00,,